Flag for Denmark Weather past 2 weeks in Horsens, Denmark

Now
41 °F

Passing clouds.


Feels Like: 35 °F
Forecast: 41 / 47 °F
Wind: 9 mph from Southwest

Location: Billund Lufthavn

Current Time: Mar 6, 2015 at 3:36:33 AM

Latest Report: Mar 6, 2015 at 2:50 AM


Visibility: 5 mi

Pressure: 30.36 "Hg

Humidity: 93%

Dew point: 39 °F

Location of HorsensLocation

Historic Weather in Horsens — Graph

°F

Horsens temperature yesterday

Maximum temperature yesterday: 45 °F (at 12:20 PM)
Minimum temperature yesterday: 32 °F (at 12:20 AM)
Average temperature yesterday: 39 °F

Past Weeks' High & Low Weather Summary

 TemperatureHumidityPressure
High45 °F (Feb 27, 1:20 PM)100% (Feb 19, 5:50 AM)30.45 "Hg (Feb 19, 5:50 AM)
Low25 °F (Feb 28, 12:20 AM)66% (Feb 27, 3:20 PM)29.12 "Hg (Feb 23, 7:56 AM)
Average38 °F90%29.70 "Hg
* Reported Feb 19 2:20 AM — Mar 6 2:20 AM, Horsens, Weather by CustomWeather, © 2015

Note: Actual official high and low records may vary slightly from our data, if they occured in-between our weather recording intervals... More about our weather records

Advertising

Horsens weather history for previous 24 hours

 ConditionsComfort  
Time TempWeatherWind HumidityBarometerVisibility
2:20 AM
Fri, Mar 6
41 °FSprinkles. Mostly cloudy.9 mph93%30.36 "Hg4 mi
1:50 AM41 °FSprinkles. Passing clouds.9 mph93%30.39 "Hg4 mi
1:20 AM41 °FDrizzle. Low clouds.8 mph93%30.39 "Hg3 mi
12:50 AM41 °FLow clouds.8 mph93%30.39 "Hg4 mi
12:20 AM41 °FLow clouds.7 mph93%30.39 "Hg4 mi
11:50 PM
Thu, Mar 5
41 °FSprinkles. Fog.8 mph93%30.39 "Hg3 mi
11:20 PM41 °FSprinkles. Low clouds.9 mph93%30.42 "Hg4 mi
10:50 PM39 °FLow clouds.8 mph100%30.42 "Hg4 mi
10:20 PM39 °FDrizzle. Low clouds.9 mph100%30.42 "Hg3 mi
9:20 PM41 °FLow clouds.9 mph93%30.42 "Hg5 mi
8:50 PM41 °FLow clouds.10 mph93%30.42 "Hg5 mi
8:20 PM41 °FLow clouds.8 mph93%30.42 "Hg5 mi
7:50 PM41 °FPassing clouds.9 mph93%30.42 "HgN/A
7:20 PM41 °FPassing clouds.8 mph93%30.42 "HgN/A
6:50 PM41 °FPassing clouds.8 mph93%30.45 "HgN/A
6:20 PM41 °FPassing clouds.7 mph93%30.45 "HgN/A
5:50 PM43 °FMostly cloudy.9 mph81%30.45 "HgN/A
5:20 PM43 °FPartly sunny.9 mph81%30.45 "HgN/A
4:50 PM43 °FPartly sunny.7 mph76%30.45 "HgN/A
4:20 PM43 °FBroken clouds.7 mph76%30.45 "HgN/A
3:50 PM45 °FBroken clouds.9 mph71%30.45 "HgN/A
3:20 PM45 °FOvercast.7 mph71%30.45 "HgN/A
2:50 PM45 °FOvercast.9 mph66%30.45 "HgN/A
2:20 PM43 °FPartly sunny.13 mph71%30.45 "HgN/A
1:50 PM45 °FPartly sunny.14 mph71%30.45 "HgN/A
1:20 PM45 °FBroken clouds.14 mph71%30.45 "HgN/A
12:50 PM45 °FScattered clouds.15 mph71%30.45 "HgN/A
12:20 PM45 °FPassing clouds.15 mph81%30.45 "HgN/A
11:50 AM43 °FScattered clouds.15 mph81%30.45 "HgN/A
11:20 AM43 °FBroken clouds.13 mph81%30.45 "HgN/A
10:50 AM41 °FPartly sunny.6 mph93%30.45 "HgN/A
10:20 AM39 °FPartly sunny.8 mph93%30.45 "HgN/A
9:50 AM39 °FPartly sunny.7 mph93%30.45 "HgN/A
9:20 AM37 °FPartly sunny.9 mph100%30.42 "HgN/A
8:50 AM37 °FScattered clouds.9 mph93%30.42 "HgN/A
8:20 AM37 °FPartly sunny.8 mph93%30.42 "HgN/A
7:50 AM36 °FScattered clouds.9 mph93%30.42 "HgN/A
7:20 AM34 °FChilly.7 mph100%30.39 "HgN/A
6:50 AM34 °FChilly.8 mph100%30.39 "HgN/A
6:20 AM34 °FPassing clouds.7 mph100%30.39 "Hg6 mi
5:50 AM34 °FPassing clouds.6 mph100%30.39 "Hg5 mi
5:20 AM34 °FPassing clouds.7 mph100%30.39 "Hg6 mi
4:20 AM34 °FChilly.8 mph100%30.36 "Hg4 mi
3:50 AM34 °FFog.6 mph100%30.36 "Hg2 mi
Weather by CustomWeather, © 2015

See weather overviewHow to use our weather pages